Location: Unspecified
(0.0000°N, 0.0000°E)
Time: 21:04:24
(UTC+00:00)

Envisat - Pass Details

Date: 07 August 2022
Orbit: 763 x 765 km, 98.2° (Epoch: 15 August)

Event Time Altitude Azimuth Distance (km) Brightness Sun altitude
Rises 02:59:21 0° 47° (NE) 3,215 6.9 -44.2°
Reaches altitude 10° 03:02:44 10° 71° (ENE) 2,293 6.1 -43.4°
Enters shadow 03:03:44 13° 82° (E) 2,119 5.8 -43.2°
